Regional Weather Roundup
Issued by NWS

Home | Current Version | Previous Version | Graphics & Text | Print | Product List | Glossary Off
Versions: 1 2 3 4 5 6 7 8 9 10 11 12 13 14 15 16 17 18 19 20 21 22 23 24 25 26 27 28 29 30 31 32 33 34 35 36 37 38 39 40 41 42 43 44 45 46 47 48 49 50

000
ASUS45 KBOI 271110
RWRID
WEATHER ROUNDUP FOR IDAHO
NATIONAL WEATHER SERVICE BOISE ID
400 AM MST THU NOV 27 2014

NOTE: "FAIR" INDICATES FEW OR NO CLOUDS BELOW 12000 FEET
WITH NO SIGNIFICANT WEATHER AND/OR OBSTRUCTIONS TO VISIBILITY

IDZ012-014-271200-
SOUTHWEST IDAHO


CITY           SKY/WX    TMP DP  RH WIND       PRES   REMARKS
BOISE          CLOUDY    43  37  79 CALM      30.16F
CALDWELL       NOT AVBL
MOUNTAIN HOME  CLOUDY    44  40  83 E16       30.15F
$$

IDZ016-017-271200-
SOUTHCENTRAL IDAHO


CITY           SKY/WX    TMP DP  RH WIND       PRES   REMARKS
BURLEY         CLOUDY    52  27  38 SW16G24   30.19F
JEROME         CLOUDY    42  32  67 NE10      30.20F
TWIN FALLS     CLOUDY    54  28  36 SW12      30.20F
$$

IDZ019>023-271200-
SOUTHEAST IDAHO


CITY           SKY/WX    TMP DP  RH WIND       PRES   REMARKS
IDAHO FALLS    CLOUDY    36  30  79 N5        30.24R WCI  32
POCATELLO      CLEAR     48  27  44 W5        30.22F
REXBURG        CLOUDY    33  30  88 E5        30.23F WCI  29
$$

IDZ006-010-011-018-031-032-271200-
CENTRAL IDAHO MOUNTAINS


CITY           SKY/WX    TMP DP  RH WIND       PRES   REMARKS
MCCALL         CLOUDY    33  33 100 VRB3      30.16S
HAILEY         CLOUDY    34  28  80 NW8       30.24F WCI  27
STANLEY          N/A     34  23  64 CALM      30.22F
SALMON         CLOUDY    30  28  93 NW6       30.17R WCI  24
CHALLIS        MOCLDY    32  27  81 W5        30.16F WCI  27
$$

IDZ002-004-006-007-026-271200-
NORTHERN IDAHO


CITY           SKY/WX    TMP DP  RH WIND       PRES   REMARKS
LEWISTON       CLOUDY    48  41  76 NE3       29.99S
LOWELL           N/A     40  39  97 N3        30.11F
COEUR D`ALENE  CLOUDY    46  39  76 S13       29.90F
MULLAN PASS    CLOUDY    37  31  78 SW15G28   29.96F WCI  28
$$



USA.gov is the U.S. government's official web portal to all federal, state and local government web resources and services.